LA8QT Lodingen NO current weather conditions

sailwx.info

Wind from 142 at 4 knots

Air temperature 2.8° C
Dewpoint -0.2° C

Last reported at 2017-Mar-26 08:44 UTC.
Time now 2017-Mar-26 09:05 UTC

Location: N 68°28' E 016°04'.
View on Google Maps.

See reports from other nearby stations

  
Tides and Currents Weather Stations Pressure Air Temp Water Temp Dewpoint Dewpoint Depression Visibility Wind Speed Wind Dir Waves Ship Positions
date/time (UTC)wind fromknots sea level pressurealtimeterstation pressurevisibilityair tempwater tempwave heightnotes
2017-Mar-26 08:44 142 4 2.8
2017-Mar-26 08:29 196 9 2.2
2017-Mar-26 08:14 188 8 2.2
2017-Mar-26 07:59 216 9 2.2
2017-Mar-26 07:44 162 7 2.2
2017-Mar-26 07:29 244 4 2.8
2017-Mar-26 07:14 198 6 2.2
2017-Mar-26 06:59 218 6 1.7
2017-Mar-26 06:44 216 13 2.2
2017-Mar-26 06:29 231 13 2.8
2017-Mar-26 06:14 251 8 3.9
2017-Mar-26 05:59 236 19 3.3
2017-Mar-26 05:44 223 17 5.6
2017-Mar-26 05:29 187 19 5.0
2017-Mar-26 05:14 233 19 4.4
2017-Mar-26 04:59 225 11 3.9
2017-Mar-26 04:43 192 5 3.3
2017-Mar-26 04:28 097 9 3.3
2017-Mar-26 04:14 244 20 3.3
2017-Mar-26 03:58 249 13 5.0
2017-Mar-26 03:43 215 17 4.4
2017-Mar-26 03:28 262 12 5.6
2017-Mar-26 03:13 194 5 5.0
2017-Mar-26 02:58 207 0 3.9
2017-Mar-26 02:43 196 7 3.9
2017-Mar-26 02:28 175 14 4.4
2017-Mar-26 02:13 166 13 5.6
2017-Mar-26 01:58 203 11 5.6
2017-Mar-26 01:43 176 13 5.6
2017-Mar-26 01:28 207 12 5.0
2017-Mar-26 01:13 188 11 5.0
2017-Mar-26 00:58 183 15 5.6
2017-Mar-26 00:43 146 13 5.6
2017-Mar-26 00:28 183 9 5.6
2017-Mar-26 00:13 172 7 6.1
2017-Mar-25 23:58 194 13 6.7
2017-Mar-25 23:43 185 12 6.7
2017-Mar-25 23:28 179 10 6.1
2017-Mar-25 23:13 202 8 5.6
2017-Mar-25 22:58 208 7 5.6
2017-Mar-25 22:43 176 8 5.6
2017-Mar-25 22:28 179 11 5.6
2017-Mar-25 22:13 164 12 5.6
2017-Mar-25 21:58 164 14 5.6
2017-Mar-25 21:28 206 13 5.6
2017-Mar-25 21:13 171 11 5.0
2017-Mar-25 20:58 150 6 2.8
2017-Mar-25 20:43 171 5 2.2
2017-Mar-25 20:28 144 8 2.2
2017-Mar-25 20:13 170 11 2.2
2017-Mar-25 19:58 210 13 2.2
2017-Mar-25 19:43 180 13 1.7
2017-Mar-25 19:28 169 13 1.7
2017-Mar-25 19:13 164 11 1.1
2017-Mar-25 18:58 169 12 1.7
2017-Mar-25 18:43 168 14 1.7
2017-Mar-25 18:28 165 13 2.2
2017-Mar-25 18:13 171 14 2.2
2017-Mar-25 17:58 196 16 2.8
2017-Mar-25 17:43 157 18 2.8
2017-Mar-25 17:28 195 20 2.8
2017-Mar-25 17:12 176 21 3.3
2017-Mar-25 16:57 188 24 3.3
2017-Mar-25 16:43 210 23 5.0
2017-Mar-25 16:27 177 19 5.6
2017-Mar-25 16:13 188 16 5.0
2017-Mar-25 15:58 150 10 4.4
2017-Mar-25 15:42 158 16 4.4
2017-Mar-25 15:27 207 14 4.4
2017-Mar-25 15:12 210 15 5.0
2017-Mar-25 14:57 200 17 5.0
2017-Mar-25 14:42 181 17 4.4
2017-Mar-25 14:27 168 15 4.4
2017-Mar-25 14:12 174 15 4.4
2017-Mar-25 13:58 185 16 4.4
2017-Mar-25 13:42 196 14 4.4
2017-Mar-25 13:27 210 16 4.4
2017-Mar-25 13:12 202 13 4.4
2017-Mar-25 12:58 181 13 4.4
2017-Mar-25 12:42 212 14 4.4
2017-Mar-25 12:27 203 15 4.4
2017-Mar-25 12:12 187 16 4.4
2017-Mar-25 11:57 198 14 4.4
2017-Mar-25 11:42 179 15 4.4
2017-Mar-25 11:27 198 13 3.9
2017-Mar-25 11:12 194 13 3.9
2017-Mar-25 10:57 194 13 4.4
2017-Mar-25 10:42 196 15 4.4
2017-Mar-25 10:27 195 13 3.9
2017-Mar-25 10:12 196 13 3.9
2017-Mar-25 09:57 196 13 3.9
2017-Mar-25 09:42 179 13 3.9
2017-Mar-25 09:27 202 13 3.9
2017-Mar-25 09:12 213 9 3.3
2017-Mar-25 08:57 169 11 3.3
2017-Mar-25 08:42 197 13 3.3
2017-Mar-25 08:27 202 14 3.3
2017-Mar-25 08:12 194 15 3.3
2017-Mar-25 07:57 214 12 3.3
2017-Mar-25 07:42 163 10 3.3
2017-Mar-25 07:27 201 10 3.3
2017-Mar-25 07:12 174 7 3.3
2017-Mar-25 06:57 175 9 2.8
2017-Mar-25 06:42 175 8 3.3
2017-Mar-25 06:27 185 8 3.3
2017-Mar-25 06:12 179 8 3.3
2017-Mar-25 05:57 178 8 3.3
2017-Mar-25 05:42 168 6 2.8
2017-Mar-25 05:27 148 8 2.8
2017-Mar-25 05:12 165 11 2.8
2017-Mar-25 04:57 211 8 2.8
2017-Mar-25 04:42 168 9 2.8
2017-Mar-25 04:27 168 9 2.8
2017-Mar-25 04:12 180 9 2.8
2017-Mar-25 03:57 206 9 2.8
2017-Mar-25 03:42 161 8 2.8
2017-Mar-25 03:27 207 9 2.8
2017-Mar-25 03:12 202 8 3.3
2017-Mar-25 02:57 181 7 3.3
2017-Mar-25 02:42 207 6 2.8
2017-Mar-25 02:27 202 6 2.8
2017-Mar-25 02:12 204 6 2.8
2017-Mar-25 01:57 196 5 2.8
2017-Mar-25 01:42 191 7 2.8
2017-Mar-25 01:27 187 8 2.8
2017-Mar-25 01:12 160 9 2.8
2017-Mar-25 00:57 185 10 2.8
2017-Mar-25 00:42 188 11 2.2
2017-Mar-25 00:27 163 9 2.2
2017-Mar-25 00:12 185 10 2.2
2017-Mar-24 23:57 150 8 1.7
2017-Mar-24 23:41 150 11 1.7
2017-Mar-24 23:27 192 11 2.8
2017-Mar-24 23:11 176 6 2.8
2017-Mar-24 22:56 154 7 2.2
2017-Mar-24 22:41 208 3 1.1
2017-Mar-24 22:26 187 3 1.1
2017-Mar-24 22:11 192 6 1.1
2017-Mar-24 21:56 205 3 1.1
2017-Mar-24 21:41 191 1 1.7
2017-Mar-24 21:26 175 2 1.7
2017-Mar-24 21:11 201 4 1.7
2017-Mar-24 20:56 235 4 2.2
2017-Mar-24 20:41 318 0 2.2
2017-Mar-24 20:26 038 2.8
2017-Mar-24 20:11 229 0 2.8
2017-Mar-24 19:56 217 1 2.8
2017-Mar-24 19:41 213 0 2.2
2017-Mar-24 19:26 214 2 2.2
2017-Mar-24 19:11 188 3 1.7
2017-Mar-24 18:56 169 1.7
2017-Mar-24 18:41 145 1.7
2017-Mar-24 18:26 145 1.7
2017-Mar-24 18:11 197 1 1.1
2017-Mar-24 17:56 219 3 1.1
2017-Mar-24 17:41 222 3 1.1
2017-Mar-24 17:26 176 5 1.1
2017-Mar-24 17:11 165 3 1.1
2017-Mar-24 16:56 207 3 1.1
2017-Mar-24 16:41 183 5 1.1
2017-Mar-24 16:26 166 6 1.1
2017-Mar-24 16:11 147 8 1.1
2017-Mar-24 15:56 148 8 1.1
2017-Mar-24 15:41 141 7 1.1
2017-Mar-24 15:26 141 8 1.1
2017-Mar-24 15:11 163 10 1.1
2017-Mar-24 14:56 146 10 1.1
2017-Mar-24 14:41 169 9 1.7
2017-Mar-24 14:26 159 10 2.2
2017-Mar-24 14:11 160 10 2.2
2017-Mar-24 13:56 157 11 2.2
2017-Mar-24 13:41 185 10 2.8
2017-Mar-24 13:26 158 11 2.8
2017-Mar-24 13:11 164 11 2.8
2017-Mar-24 12:56 144 10 2.8
2017-Mar-24 12:41 170 13 2.8
2017-Mar-24 12:26 135 13 2.8
2017-Mar-24 12:11 146 12 2.8
2017-Mar-24 11:56 147 9 2.8
2017-Mar-24 11:41 138 10 2.8
2017-Mar-24 11:26 176 13 2.8
2017-Mar-24 11:11 131 11 2.8
2017-Mar-24 10:56 140 15 2.2
2017-Mar-24 10:41 144 13 2.2
2017-Mar-24 10:26 150 15 2.2
2017-Mar-24 10:11 135 18 2.2
2017-Mar-24 09:56 126 13 2.2
2017-Mar-24 09:41 152 13 2.2
2017-Mar-24 09:26 140 9 2.2
2017-Mar-24 09:11 172 9 2.2